Weather reports worldwide

Advertisment
Ingolstadt (Flugplatz), Germany (10860): temperature & dewpoint: 08.07.2020 12:00:00 - 14.07.2020 12:00:00 (CEST)Ingolstadt (Flugplatz), Germany (10860): wind speed: 08.07.2020 12:00:00 - 14.07.2020 12:00:00 (CEST)Ingolstadt (Flugplatz), Germany (10860): wind direction: 08.07.2020 12:00:00 - 14.07.2020 12:00:00 (CEST)Ingolstadt (Flugplatz), Germany (10860): reduced air pressure: 08.07.2020 12:00:00 - 14.07.2020 12:00:00 (CEST)Ingolstadt (Flugplatz), Germany (10860): visibility: 08.07.2020 12:00:00 - 14.07.2020 12:00:00 (CEST)
Date & Time tt [°C] td [°C] ff [km/h] ff [kn] dd ppp [hPa] vv [km]
14.07.2020 12:00:00 - - - - - - -
14.07.2020 11:00:00 19,4 10,6 7 4 ENE 1016,2 70
14.07.2020 10:00:00 18,2 9,7 7 4 ENE 1016,8 70
14.07.2020 09:00:00 16,5 9,4 7 4 ENE 1017,1 70
14.07.2020 08:00:00 15,1 9,5 7 4 ENE 1017,7 60
14.07.2020 07:00:00 12,5 9,3 4 2 ENE 1018,3 60
14.07.2020 06:00:00 9,8 7,5 4 2 ESE 1018,7 -
14.07.2020 05:00:00 10,4 8,7 0 0 N 1018,5 -
14.07.2020 04:00:00 11,3 9,6 4 2 ENE 1018,6 -
14.07.2020 03:00:00 12,2 9,6 4 2 N 1018,8 -
14.07.2020 02:00:00 14,0 9,9 4 2 ENE 1018,8 -
14.07.2020 01:00:00 13,4 9,9 4 2 N 1019,0 -
14.07.2020 00:00:00 14,3 10,1 7 4 E 1019,1 -
13.07.2020 23:00:00 15,6 10,0 4 2 E 1019,0 -
13.07.2020 22:00:00 16,9 8,7 4 2 S 1019,0 -
13.07.2020 21:00:00 20,7 7,9 4 2 SSE 1018,2 70
13.07.2020 20:00:00 21,7 6,5 7 4 E 1018,2 -
13.07.2020 19:00:00 22,7 6,6 7 4 ESE 1018,2 -
13.07.2020 18:00:00 23,3 6,8 7 4 ESE 1018,6 -
13.07.2020 17:00:00 22,9 6,4 11 6 E 1019,1 -
13.07.2020 16:00:00 22,7 7,0 14 8 E 1019,4 75
13.07.2020 15:00:00 22,2 6,4 11 6 E 1020,0 75
13.07.2020 14:00:00 22,8 6,8 11 6 SE 1020,6 75
13.07.2020 13:00:00 21,0 5,7 18 10 E 1021,6 75
13.07.2020 12:00:00 21,5 6,1 14 8 E 1021,8 75
13.07.2020 11:00:00 20,7 7,7 14 8 ESE 1022,2 75
13.07.2020 10:00:00 19,2 9,5 11 6 E 1022,9 75
13.07.2020 09:00:00 16,4 9,4 11 6 E 1023,6 75
13.07.2020 08:00:00 13,5 8,5 11 6 E 1024,2 75
13.07.2020 07:00:00 11,3 7,7 7 4 E 1024,5 70
13.07.2020 06:00:00 10,1 7,4 4 2 N 1024,5 45
13.07.2020 05:00:00 10,6 8,4 7 4 ENE 1024,5 35
13.07.2020 04:00:00 11,1 8,8 7 4 E 1024,7 35
13.07.2020 03:00:00 11,3 8,5 7 4 E 1024,8 40
13.07.2020 02:00:00 12,4 9,3 7 4 ENE 1024,8 55
13.07.2020 01:00:00 12,7 9,2 7 4 E 1024,9 45
13.07.2020 00:00:00 13,4 9,6 4 2 E 1024,9 50
12.07.2020 23:00:00 13,6 9,9 4 2 N 1025,1 45
12.07.2020 22:00:00 16,1 9,7 4 2 ESE 1024,8 55
12.07.2020 21:00:00 19,7 7,9 4 2 E 1023,9 75
12.07.2020 20:00:00 20,5 7,4 11 6 E 1023,9 75
12.07.2020 19:00:00 21,3 7,1 7 4 ESE 1023,9 75
12.07.2020 18:00:00 20,4 7,4 11 6 ENE 1024,2 75
12.07.2020 17:00:00 22,0 8,0 11 6 E 1024,0 75
12.07.2020 16:00:00 21,1 8,0 14 8 ENE 1024,3 75
12.07.2020 15:00:00 21,3 8,4 14 8 ESE 1024,6 75
12.07.2020 14:00:00 19,8 7,7 18 10 E 1024,9 75
12.07.2020 13:00:00 20,5 8,3 7 4 NE 1024,9 75
12.07.2020 12:00:00 19,0 11,6 7 4 E 1025,4 55
12.07.2020 11:00:00 17,3 12,6 11 6 E 1025,7 50
12.07.2020 10:00:00 15,3 12,3 11 6 ENE 1026,0 30
12.07.2020 09:00:00 13,0 12,2 14 8 ENE 1026,4 4,7
12.07.2020 08:00:00 11,8 11,1 14 8 ENE 1026,2 1,1
12.07.2020 07:00:00 11,7 10,3 11 6 ENE 1025,8 17
12.07.2020 06:00:00 11,3 10,1 7 4 E 1025,2 19
12.07.2020 05:00:00 11,4 10,0 7 4 E 1024,9 25
12.07.2020 04:00:00 11,3 9,9 7 4 E 1024,9 40
12.07.2020 03:00:00 11,7 9,8 7 4 E 1025,0 30
12.07.2020 02:00:00 12,1 10,4 4 2 ENE 1024,8 45
12.07.2020 01:00:00 13,3 10,6 4 2 E 1024,6 18
12.07.2020 00:00:00 14,0 10,7 7 4 E 1024,6 75
11.07.2020 23:00:00 14,5 11,2 4 2 ENE 1024,1 60
11.07.2020 22:00:00 17,3 9,4 7 4 ENE 1023,4 75
11.07.2020 21:00:00 18,9 8,5 7 4 NE 1022,4 75
11.07.2020 20:00:00 19,7 9,0 14 8 NNE 1022,0 75
11.07.2020 19:00:00 21,0 8,8 11 6 NNE 1021,4 45
11.07.2020 18:00:00 21,1 7,5 14 8 N 1021,4 75
11.07.2020 17:00:00 20,8 9,3 18 10 N 1021,2 75
11.07.2020 16:00:00 20,0 9,9 11 6 NNE 1021,0 75
11.07.2020 15:00:00 19,8 10,3 11 6 NNE 1021,2 75
11.07.2020 14:00:00 19,5 10,5 14 8 NNE 1021,1 75
11.07.2020 13:00:00 18,6 11,5 14 8 NNE 1021,1 75
11.07.2020 12:00:00 17,7 12,4 14 8 NNE 1021,0 60
11.07.2020 11:00:00 15,6 12,6 7 4 NE 1020,9 50
11.07.2020 10:00:00 14,4 12,9 7 4 NE 1020,6 30
11.07.2020 09:00:00 14,5 13,5 7 4 NNE 1020,1 28
11.07.2020 08:00:00 15,1 13,8 7 4 NNE 1019,2 15
11.07.2020 07:00:00 15,1 13,8 0 0 N 1018,6 23
11.07.2020 06:00:00 15,3 14,2 4 2 S 1018,2 14
11.07.2020 05:00:00 15,7 13,7 7 4 NW 1017,8 14
11.07.2020 04:00:00 17,7 11,5 7 4 WNW 1017,6 45
11.07.2020 03:00:00 18,0 11,3 4 2 NE 1017,2 75
11.07.2020 02:00:00 18,0 11,4 4 2 ESE 1017,1 40
11.07.2020 01:00:00 19,6 11,0 11 6 N 1016,7 60
11.07.2020 00:00:00 20,3 11,5 7 4 W 1015,9 35
10.07.2020 23:00:00 20,7 11,1 7 4 WSW 1015,4 45
10.07.2020 22:00:00 21,8 10,0 14 8 WNW 1014,8 65
10.07.2020 21:00:00 22,3 10,3 14 8 NW 1014,2 75
10.07.2020 20:00:00 23,4 11,4 25 14 N 1013,3 75
10.07.2020 19:00:00 25,1 13,0 29 16 NNW 1012,0 75
10.07.2020 18:00:00 27,0 13,7 29 16 NW 1010,3 40
10.07.2020 17:00:00 28,3 16,1 14 8 NW 1009,1 30
10.07.2020 16:00:00 28,0 15,0 18 10 WNW 1009,6 10
10.07.2020 15:00:00 30,2 14,5 22 12 W 1009,0 75
10.07.2020 14:00:00 29,6 14,0 18 10 W 1009,4 75
10.07.2020 13:00:00 29,0 13,4 29 16 W 1010,0 70
10.07.2020 12:00:00 28,2 14,0 18 10 W 1010,1 75
10.07.2020 11:00:00 26,8 14,3 11 6 W 1010,6 75
10.07.2020 10:00:00 25,5 14,7 11 6 SW 1011,1 75
10.07.2020 09:00:00 22,8 13,9 4 2 E 1011,4 75
10.07.2020 08:00:00 19,9 13,2 0 0 N 1012,1 65
10.07.2020 07:00:00 15,9 13,1 0 0 N 1012,8 17
10.07.2020 06:00:00 13,6 12,3 7 4 S 1013,6 5
10.07.2020 05:00:00 13,7 12,0 4 2 N 1013,7 7
10.07.2020 04:00:00 14,9 12,7 0 0 N 1013,5 29
10.07.2020 03:00:00 15,4 13,1 4 2 N 1013,7 30
10.07.2020 02:00:00 16,1 13,3 4 2 S 1014,0 30
10.07.2020 01:00:00 17,4 14,6 4 2 S 1013,9 35
10.07.2020 00:00:00 19,1 14,3 0 0 N 1013,6 40
09.07.2020 23:00:00 19,8 14,9 4 2 N 1013,2 40
09.07.2020 22:00:00 21,3 15,5 4 2 SSW 1012,9 45
09.07.2020 21:00:00 25,0 14,3 4 2 SSW 1012,2 50
09.07.2020 20:00:00 27,0 12,9 11 6 W 1011,9 75
09.07.2020 19:00:00 27,7 12,3 14 8 W 1012,0 75
09.07.2020 18:00:00 28,2 12,0 18 10 W 1012,3 60
09.07.2020 17:00:00 27,8 12,9 14 8 W 1012,9 60
09.07.2020 16:00:00 27,3 13,2 14 8 W 1013,6 60
09.07.2020 15:00:00 27,0 13,1 18 10 W 1014,2 40
09.07.2020 14:00:00 24,7 11,7 22 12 W 1015,4 40
09.07.2020 13:00:00 24,9 14,6 14 8 WSW 1016,0 40
09.07.2020 12:00:00 24,2 14,7 11 6 WSW 1016,2 40
09.07.2020 11:00:00 21,9 14,0 11 6 W 1016,9 40
09.07.2020 10:00:00 21,1 13,3 14 8 W 1017,3 30
09.07.2020 09:00:00 18,5 13,3 7 4 W 1017,6 25
09.07.2020 08:00:00 16,3 12,5 7 4 S 1017,9 25
09.07.2020 07:00:00 14,4 12,5 4 2 N 1017,9 30
09.07.2020 06:00:00 14,1 12,2 4 2 ENE 1018,0 35
09.07.2020 05:00:00 14,0 12,0 4 2 NNE 1017,9 35
09.07.2020 04:00:00 15,2 12,0 7 4 E 1017,7 45
09.07.2020 03:00:00 16,1 12,0 7 4 ESE 1017,9 55
09.07.2020 02:00:00 16,2 12,2 7 4 E 1018,3 55
09.07.2020 01:00:00 16,5 11,7 4 2 E 1018,5 50
09.07.2020 00:00:00 16,7 11,4 11 6 ENE 1018,6 65
08.07.2020 23:00:00 17,3 12,0 11 6 NE 1018,0 75
08.07.2020 22:00:00 18,6 11,9 4 2 ENE 1017,4 60
08.07.2020 21:00:00 19,1 11,1 4 2 E 1016,8 75
08.07.2020 20:00:00 19,6 11,2 11 6 NE 1016,5 75
08.07.2020 19:00:00 20,7 10,7 11 6 NE 1015,9 75
08.07.2020 18:00:00 21,7 10,7 22 12 NNE 1015,6 40
08.07.2020 17:00:00 23,3 10,5 18 10 NW 1015,1 50
08.07.2020 16:00:00 23,2 10,1 18 10 WNW 1015,0 60
08.07.2020 15:00:00 23,3 10,6 18 10 W 1014,8 60
08.07.2020 14:00:00 22,9 9,8 22 12 W 1015,3 60
08.07.2020 13:00:00 21,6 9,1 22 12 WNW 1015,9 60
08.07.2020 12:00:00 21,2 8,5 25 14 W 1015,9 60

tt = temperature
td = dewpoint
ff = wind speed
dd = wind direction
ppp = reduced air pressure
vv = visibility

Next stations